TimeCDT,TemperatureF,Dew PointF,Humidity,Sea Level PressureIn,VisibilityMPH,Wind Direction,Wind SpeedMPH,Gust SpeedMPH,PrecipitationIn,Events,Conditions,WindDirDegrees,DateUTC
12:52 AM,66.9,63.0,87,29.87,10.0,South,6.9,-,N/A,,Partly Cloudy,190,2013-06-15 05:52:00
1:52 AM,68.0,63.0,84,29.87,10.0,South,12.7,-,N/A,,Mostly Cloudy,180,2013-06-15 06:52:00
2:52 AM,66.9,62.1,84,29.87,10.0,South,11.5,-,N/A,,Partly Cloudy,190,2013-06-15 07:52:00
3:52 AM,68.0,60.1,76,29.88,10.0,SW,6.9,-,N/A,,Overcast,220,2013-06-15 08:52:00
4:52 AM,66.9,61.0,81,29.87,10.0,SW,9.2,-,N/A,,Scattered Clouds,220,2013-06-15 09:52:00
5:52 AM,64.0,60.1,87,29.87,10.0,SSE,4.6,-,N/A,,Partly Cloudy,160,2013-06-15 10:52:00
6:52 AM,64.0,61.0,90,29.88,10.0,South,3.5,-,N/A,,Clear,190,2013-06-15 11:52:00
7:52 AM,71.1,61.0,70,29.88,10.0,SSW,6.9,-,N/A,,Clear,200,2013-06-15 12:52:00
8:52 AM,72.0,61.0,68,29.89,10.0,South,10.4,-,N/A,,Mostly Cloudy,190,2013-06-15 13:52:00
9:52 AM,72.0,62.1,71,29.90,10.0,SSW,5.8,-,N/A,,Mostly Cloudy,210,2013-06-15 14:52:00
10:04 AM,71.6,62.6,73,29.91,10.0,South,6.9,-,N/A,,Mostly Cloudy,180,2013-06-15 15:04:00
10:17 AM,71.6,62.6,73,29.91,10.0,South,6.9,-,N/A,,Mostly Cloudy,180,2013-06-15 15:17:00
10:29 AM,71.6,62.6,73,29.89,10.0,SSE,5.8,-,N/A,,Mostly Cloudy,160,2013-06-15 15:29:00
10:52 AM,71.1,62.1,73,29.92,10.0,SSW,9.2,-,N/A,,Overcast,210,2013-06-15 15:52:00
11:15 AM,69.8,62.6,78,30.00,10.0,SW,10.4,-,N/A,,Overcast,220,2013-06-15 16:15:00
11:48 AM,69.8,62.6,78,29.99,10.0,SSW,10.4,-,N/A,Thunderstorm,Mostly Cloudy,210,2013-06-15 16:48:00
11:52 AM,69.1,63.0,81,29.98,10.0,SW,10.4,-,N/A,Thunderstorm,Mostly Cloudy,220,2013-06-15 16:52:00
11:59 AM,69.8,62.6,78,29.99,7.0,WSW,13.8,18.4,0.01,Rain-Thunderstorm,Light Rain,240,2013-06-15 16:59:00
12:20 PM,66.2,62.6,88,29.84,7.0,East,17.3,20.7,0.04,Rain,Light Rain,80,2013-06-15 17:20:00
12:52 PM,69.1,64.9,87,29.85,10.0,East,5.8,-,0.04,,Clear,80,2013-06-15 17:52:00
1:52 PM,73.0,66.9,81,29.89,10.0,North,16.1,-,N/A,,Scattered Clouds,350,2013-06-15 18:52:00
1:59 PM,71.6,66.2,83,29.91,9.0,NNW,20.7,26.5,N/A,,Mostly Cloudy,340,2013-06-15 18:59:00
2:25 PM,73.4,66.2,78,29.90,10.0,North,18.4,25.3,N/A,,Scattered Clouds,360,2013-06-15 19:25:00
2:52 PM,75.9,64.9,69,29.87,10.0,NNE,13.8,19.6,N/A,,Clear,30,2013-06-15 19:52:00
3:52 PM,79.0,63.0,58,29.88,10.0,NNE,10.4,-,N/A,,Clear,20,2013-06-15 20:52:00
4:52 PM,81.0,57.0,44,29.87,10.0,Calm,Calm,-,N/A,,Clear,0,2013-06-15 21:52:00
5:52 PM,80.1,57.9,47,29.86,10.0,Variable,5.8,-,N/A,,Clear,0,2013-06-15 22:52:00
6:52 PM,79.0,59.0,50,29.86,10.0,NNW,15.0,-,N/A,,Scattered Clouds,330,2013-06-15 23:52:00
7:09 PM,78.8,62.6,57,29.88,10.0,NNW,11.5,-,N/A,,Scattered Clouds,340,2013-06-16 00:09:00
7:52 PM,77.0,62.1,60,29.87,10.0,North,10.4,-,N/A,,Clear,350,2013-06-16 00:52:00
8:52 PM,73.0,61.0,66,29.88,10.0,North,4.6,-,N/A,,Clear,360,2013-06-16 01:52:00
9:52 PM,66.9,61.0,81,29.91,10.0,Calm,Calm,-,N/A,,Clear,0,2013-06-16 02:52:00
10:52 PM,66.9,62.1,84,29.93,10.0,WNW,5.8,-,N/A,,Clear,300,2013-06-16 03:52:00
11:52 PM,64.9,61.0,87,29.93,10.0,West,4.6,-,N/A,,Clear,280,2013-06-16 04:52:00